History for DABS

Tebessa, Algeria

Daily Weekly Monthly
Daily Summary for Saturday, April 18, 2015
  Actual: Average: Record:
Temperature
Mean Temperature: 66 °F / 18 °C - :  
Max Temperature: 84 °F / 29 °C 72 °F / 23 °C - ()
Min Temperature: 47 °F / 8 °C 47 °F / 8 °C - ()
Growing Degree Days 16 (Base 50)    
Moisture
Dew Point 37 °F / 3 °C    
Average Humidity 41    
Maximum Humidity 94    
Minimum Humidity 4    
Precipitation
Precipitation 0.00 in / 0.0 cm 0.04 in / 1.1 cm - ()
Sea Level Pressure
Sea Level Pressure 30.01 in / 1016.29 hPa   
Wind
Wind Speed 4 mph / 6 km/h ()  
Max Wind Speed 20 mph / 32 km/h   
Max Gust Speed -   
Visibility 5.8 miles / 9.4 kilometers   
Events     

Key: T is trace of precipitation, MM is missing value
Source: Averaged Metar Reports

Graphs

Observations

History Graphs Observations

Obs Go Here...

Features

Weather Apps

WunderRadio

Weather Underground Apps
Check out our wide variety of mobile and setup applications.

Weather Underground Applications

Top of Page

Copyright© 2015
Weather Underground, Inc.
Time(CET)TemperatureDew PointHumidity Sea Level Pressure Visibility Wind DirectionWind SpeedGust SpeedPrecipitationEvents Conditions
12:00 AM 60.8 °F / 16.0 °C 50.0 °F / 10.0 °C 68% 30.12 in / 1020 hPa - Calm Calm - N/A   Clear
1:00 AM 60 °F / 16 °C 49 °F / 9 °C 58%  in /  hPa 6 miles / 10 kilometers Calm Calm - -  
1:00 AM 60.8 °F / 16.0 °C 39.2 °F / 4.0 °C 45% 30.09 in / 1019 hPa - Calm Calm - N/A   Clear
2:00 AM 59.0 °F / 15.0 °C 48.2 °F / 9.0 °C 67% 30.09 in / 1019 hPa - Calm Calm - N/A   Clear
3:00 AM 59.0 °F / 15.0 °C 46.4 °F / 8.0 °C 63% 30.09 in / 1019 hPa - Calm Calm - N/A   Clear
4:00 AM 58 °F / 14 °C 47 °F / 9 °C 59%  in /  hPa 6 miles / 10 kilometers Calm Calm - -  
4:00 AM 57.2 °F / 14.0 °C 48.2 °F / 9.0 °C 72% 30.09 in / 1019 hPa - Calm Calm - N/A   Clear
5:00 AM 57.2 °F / 14.0 °C 46.4 °F / 8.0 °C 67% 30.09 in / 1019 hPa - Calm Calm - N/A   Clear
6:00 AM 50.0 °F / 10.0 °C 48.2 °F / 9.0 °C 94% 30.06 in / 1018 hPa - Calm Calm - N/A   Clear
7:00 AM 50 °F / 10 °C 43 °F / 6 °C 69%  in /  hPa 6 miles / 10 kilometers Calm Calm - -   Partly Cloudy
7:00 AM 50.0 °F / 10.0 °C 42.8 °F / 6.0 °C 76% 30.06 in / 1018 hPa - Calm Calm - N/A   Clear
8:00 AM 55.4 °F / 13.0 °C 48.2 °F / 9.0 °C 77% 30.06 in / 1018 hPa - Calm Calm - N/A   Clear
9:00 AM 57.2 °F / 14.0 °C 48.2 °F / 9.0 °C 72% 30.06 in / 1018 hPa - Calm Calm - N/A   Clear
10:00 AM 66 °F / 19 °C 53 °F / 12 °C 53%  in /  hPa 12 miles / 20 kilometers Calm Calm - -   Scattered Clouds
10:00 AM 66.2 °F / 19.0 °C 53.6 °F / 12.0 °C 64% 30.06 in / 1018 hPa - Calm Calm - N/A   Clear
10:30 AM 68.0 °F / 20.0 °C 53.6 °F / 12.0 °C 60% 30.06 in / 1018 hPa - Calm Calm - N/A   Clear
11:00 AM 64.4 °F / 18.0 °C 50.0 °F / 10.0 °C 59% 30.04 in / 1017 hPa - Calm Calm - N/A   Clear
11:30 AM 64.4 °F / 18.0 °C 50.0 °F / 10.0 °C 59% 30.04 in / 1017 hPa 6.2 miles / 10.0 kilometers Calm Calm - N/A   Mostly Cloudy
12:00 PM 71.6 °F / 22.0 °C 51.8 °F / 11.0 °C 50% 30.01 in / 1016 hPa 6.2 miles / 10.0 kilometers ENE 11.5 mph / 18.5 km/h - N/A   Mostly Cloudy
12:30 PM 73.4 °F / 23.0 °C 51.8 °F / 11.0 °C 47% 30.01 in / 1016 hPa 6.2 miles / 10.0 kilometers West 9.2 mph / 14.8 km/h - N/A   Mostly Cloudy
1:00 PM 83 °F / 28 °C 23 °F / -5 °C 5%  in /  hPa 6 miles / 10 kilometers WSW 13.8 mph / 22.2 km/h - -   Overcast
1:00 PM 84.2 °F / 29.0 °C 23.0 °F / -5.0 °C 11% 30.01 in / 1016 hPa 6.2 miles / 10.0 kilometers WSW 13.8 mph / 22.2 km/h - N/A   Mostly Cloudy
2:00 PM 84.2 °F / 29.0 °C 23.0 °F / -5.0 °C 11% 29.98 in / 1015 hPa 6.2 miles / 10.0 kilometers SSW 4.6 mph / 7.4 km/h - N/A   Mostly Cloudy
2:30 PM 84.2 °F / 29.0 °C 23.0 °F / -5.0 °C 11% 29.98 in / 1015 hPa 6.2 miles / 10.0 kilometers SW 13.8 mph / 22.2 km/h - N/A   Scattered Clouds
3:00 PM 82.4 °F / 28.0 °C 23.0 °F / -5.0 °C 11% 29.95 in / 1014 hPa 3.7 miles / 6.0 kilometers WSW 19.6 mph / 31.5 km/h - N/A   Scattered Clouds
3:30 PM 82.4 °F / 28.0 °C 23.0 °F / -5.0 °C 11% 29.95 in / 1014 hPa 5.0 miles / 8.0 kilometers SSW 11.5 mph / 18.5 km/h - N/A   Scattered Clouds
4:00 PM 83 °F / 28 °C 22 °F / -6 °C 4%  in /  hPa 5 miles / 8 kilometers SW 18.4 mph / 29.6 km/h - -   Scattered Clouds
4:00 PM 84.2 °F / 29.0 °C 21.2 °F / -6.0 °C 10% 29.95 in / 1014 hPa 5.0 miles / 8.0 kilometers SW 18.4 mph / 29.6 km/h - N/A   Scattered Clouds
4:30 PM 84.2 °F / 29.0 °C 21.2 °F / -6.0 °C 10% 29.95 in / 1014 hPa 5.0 miles / 8.0 kilometers SSW 16.1 mph / 25.9 km/h - N/A   Mostly Cloudy
5:00 PM 82.4 °F / 28.0 °C 21.2 °F / -6.0 °C 10% 29.92 in / 1013 hPa 5.0 miles / 8.0 kilometers South 13.8 mph / 22.2 km/h - N/A   Mostly Cloudy
6:00 PM 80.6 °F / 27.0 °C 23.0 °F / -5.0 °C 12% 29.92 in / 1013 hPa 5.0 miles / 8.0 kilometers SSW 11.5 mph / 18.5 km/h - N/A   Mostly Cloudy
6:30 PM 78.8 °F / 26.0 °C 23.0 °F / -5.0 °C 13% 29.92 in / 1013 hPa 5.0 miles / 8.0 kilometers SSW 11.5 mph / 18.5 km/h - N/A   Mostly Cloudy
7:00 PM 79 °F / 26 °C 20 °F / -7 °C 5%  in /  hPa 5 miles / 8 kilometers SW 11.5 mph / 18.5 km/h - -   Scattered Clouds
7:00 PM 78.8 °F / 26.0 °C 19.4 °F / -7.0 °C 11% 29.92 in / 1013 hPa 5.0 miles / 8.0 kilometers SW 11.5 mph / 18.5 km/h - N/A   Mostly Cloudy
8:00 PM 77.0 °F / 25.0 °C 21.2 °F / -6.0 °C 12% 29.92 in / 1013 hPa 5.0 miles / 8.0 kilometers WSW 11.5 mph / 18.5 km/h - N/A   Unknown